Location: Acts Church of Fort Worth
(32.6786°N, 97.2668°W)
Time: 23:22:15
(UTC+00:00)

CZ-4 R/B - Pass Details

Date: 18 January 2026
Orbit: 676 x 743 km, 98.7° (Epoch: 13 February)

Event Time Altitude Azimuth Distance (km) Brightness Sun altitude
Rises 11:31:50 0° 14° (NNE) 3,117 7.2 -24.7°
Reaches altitude 10° 11:34:05 10° 16° (NNE) 2,204 6.4 -24.3°
Maximum altitude 11:38:56 77° 103° (ESE) 749 4.0 -23.3°
Drops below altitude 10° 11:43:50 10° 189° (S) 2,228 6.4 -22.2°
Sets 11:46:07 0° 191° (S) 3,153 7.2 -21.8°
